Tracking 29090 objects as of 15-Jul-2024
HD Live streaming from Space Station
objects crossing your sky now

OSCAR 15 (UOSAT 4)

Track OSCAR 15 (UOSAT 4) now!
10-day predictions
OSCAR 15 (UOSAT 4) is classified as:


NORAD ID: 20438
Int'l Code: 1990-005C
Perigee: 787.8 km
Apogee: 800.5 km
Inclination: 98.9 °
Period: 100.6 minutes
Semi major axis: 7165 km
RCS: 0.311 m2 (medium)
Launch date: January 22, 1990
Source: United Kingdom (UK)
Launch site: FRENCH GUIANA (FRGUI)

Uplink (MHz):
Downlink (MHz): 435.120
Beacon (MHz): 435.120
Mode: CW
Call sign:
Status: Reentered

Your satellite tracking list
Your tracking list is empty




NASA's NSSDC Master Catalog

Two Line Element Set (TLE):
1 20438U 90005C   24196.86713719  .00000176  00000-0  83873-4 0  9992
2 20438  98.8832 230.1723 0008846 242.6987 293.0843 14.31411541799738
Source of the keplerian elements: AFSPC